Cortez, CO

4:55 AM MST on November 13, 2019 (GMT -0700)
Cortez Municipal

Weather History for KCEZ - September, 2019

Change the Weather History Date:

Sunday, September 15, 2019

  Actual Average Record
Temperature  
Mean Temperature 57 °F 60 °F  
Max Temperature 72 °F 78 °F 90 °F (2018)
Min Temperature 42 °F 43 °F 30 °F (2005)
Degree Days  
Heating Degree Days 8 5  
Month to date heating degree days 32 45  
Since 1 July heating degree days 32 57  
Cooling Degree Days 0 0  
Month to date cooling degree days 63 16  
Year to date cooling degree days 543 425  
Growing Degree Days 8 (Base 50)    
Moisture  
Dew Point 39 °F    
Average Humidity 49    
Maximum Humidity 62    
Minimum Humidity 35    
Precipitation  
Precipitation T in 0.07 in 0.09 in (2011)
Month to date precipitation 0.15 0.82  
Year to date precipitation 9.93 9.26  
Sea Level Pressure  
Sea Level Pressure 30.08 in    
Wind  
Wind Speed 5 mph (ESE)    
Max Wind Speed 18 mph    
Max Gust Speed 23 mph    
Visibility 10 miles    
Events      
T = Trace of Precipitation, MM = Missing Value Source: NWS Daily Summary

Daily Weather History Graph

Daily Weather History Graph

Search for Another Location

Airport or City:

Astronomy

Sep. 15, 2019 Rise Set
Actual Time 6:56 AM MDT 7:22 PM MDT
Civil Twilight 6:30 AM MDT 7:48 PM MDT
Nautical Twilight 5:59 AM MDT 8:19 PM MDT
Astronomical Twilight 5:28 AM MDT 8:50 PM MDT
Moon 8:32 PM MDT (9/15) 8:08 AM MDT (9/15)
Length of Visible Light 13h 18m
Length of Day
12h 26m
Full, 98% of the Moon is Illuminated
Sep 15
Full
Sep 21
Last Quarter
Sep 28
New
Oct 5
First Quarter
Oct 13
Full

Hourly Weather History & Observations

Time (MDT) Temp. Windchill Dew Point Humidity Pressure Visibility Wind Dir Wind Speed Gust Speed Precip Events Conditions
12:53 AM 53.1 °F - 27.0 °F 37% 30.04 in 10.0 mi ENE 6.9 mph - N/A   Clear
1:53 AM 52.0 °F - 28.0 °F 40% 30.05 in 10.0 mi East 3.5 mph - N/A   Clear
2:53 AM 46.0 °F - 28.9 °F 51% 30.07 in 10.0 mi Calm Calm - N/A   Clear
3:53 AM 46.0 °F 43.9 °F 30.0 °F 54% 30.06 in 10.0 mi East 4.6 mph - N/A   Clear
4:53 AM 46.0 °F 43.9 °F 30.0 °F 54% 30.07 in 10.0 mi East 4.6 mph - N/A   Clear
5:53 AM 44.1 °F 41.5 °F 28.9 °F 55% 30.09 in 10.0 mi ENE 4.6 mph - N/A   Clear
6:53 AM 45.0 °F - 32.0 °F 60% 30.10 in 10.0 mi Calm Calm - N/A   Clear
7:53 AM 48.0 °F - 33.1 °F 56% 30.12 in 10.0 mi Calm Calm - N/A   Clear
8:53 AM 57.0 °F - 36.0 °F 45% 30.12 in 10.0 mi Calm Calm - N/A   Clear
9:53 AM 61.0 °F - 37.9 °F 42% 30.14 in 10.0 mi SE 3.5 mph - N/A   Clear
10:53 AM 64.9 °F - 41.0 °F 42% 30.14 in 10.0 mi Calm Calm - N/A   Partly Cloudy
11:53 AM 68.0 °F - 45.0 °F 43% 30.13 in 10.0 mi SSW 11.5 mph - N/A   Overcast
12:53 PM 71.1 °F - 46.9 °F 42% 30.12 in 10.0 mi SSW 12.7 mph - 0.00 in   Partly Cloudy
1:53 PM 71.1 °F - 48.9 °F 45% 30.11 in 10.0 mi South 10.4 mph - N/A   Clear
2:53 PM 71.1 °F - 44.1 °F 38% 30.10 in 10.0 mi Calm Calm - 0.00 in   Mostly Cloudy
3:53 PM 71.1 °F - 42.1 °F 35% 30.07 in 10.0 mi NE 8.1 mph - N/A   Overcast
5:53 PM 66.9 °F - 50.0 °F 54% 30.06 in 10.0 mi SE 8.1 mph - N/A   Overcast
6:53 PM 66.0 °F - 48.0 °F 52% 30.06 in 10.0 mi SE 8.1 mph - N/A   Overcast
7:53 PM 64.9 °F - 46.9 °F 52% 30.06 in 10.0 mi SE 5.8 mph - N/A   Overcast
8:53 PM 64.0 °F - 46.9 °F 54% 30.04 in 10.0 mi ESE 6.9 mph - N/A   Overcast
9:53 PM 64.0 °F - 46.9 °F 54% 30.04 in 10.0 mi SSE 3.5 mph - N/A   Overcast
11:53 PM 62.1 °F - 48.0 °F 60% 30.02 in 10.0 mi ESE 9.2 mph - N/A   Overcast